Weather History for KONA - August, 2013

Change the Weather History Date:

Saturday, August 3, 2013

  Actual Average Record
Temperature  
Mean Temperature 65 °F -  
Max Temperature 77 °F 80 °F 91 °F (2012)
Min Temperature 53 °F 61 °F 53 °F (2000)
Growing Degree Days 15 (Base 50)    
Moisture  
Dew Point 52 °F    
Average Humidity 68    
Maximum Humidity 100    
Minimum Humidity 34    
Precipitation  
Precipitation 0.00 in - - ()
Sea Level Pressure  
Sea Level Pressure 30.12 in    
Wind  
Wind Speed 3 mph (NW)    
Max Wind Speed 14 mph    
Max Gust Speed 18 mph    
Visibility 10 miles    
Events      
Averages and records for this station are not official NWS values.
T = Trace of Precipitation, MM = Missing Value Source: NWS Daily Summary

Daily Weather History Graph

Daily Weather History Graph

Search for Another Location

Airport or City:

Trip Planner

Search our weather history database for the weather conditions in past years. The results will help you decide how hot, cold, wet, or windy it might be!

Date:

Astronomy

Aug. 03, 2013 Rise Set
Actual Time 5:57 AM CDT 8:27 PM CDT
Civil Twilight 5:24 AM CDT 9:00 PM CDT
Nautical Twilight 4:43 AM CDT 9:41 PM CDT
Astronomical Twilight 3:57 AM CDT 10:27 PM CDT
Moon 3:05 AM CDT (8/3) 6:11 PM CDT (8/3)
Length of Visible Light 15h 36m
Length of Day
14h 30m
Waning Crescent, 9% of the Moon is Illuminated
Aug 3
Waning Crescent
Aug 6
New
Aug 14
First Quarter
Aug 20
Full
Aug 28
Last Quarter

Hourly Weather History & Observations

Time (CDT) Temp. Dew Point Humidity Pressure Visibility Wind Dir Wind Speed Gust Speed Precip Events Conditions
12:16 AM 57.2 °F 55.4 °F 94% 30.04 in 10.0 mi Calm Calm - N/A   Clear
12:35 AM 55.4 °F 53.6 °F 94% 30.04 in 10.0 mi NW 3.5 mph - N/A   Scattered Clouds
12:55 AM 55.4 °F 53.6 °F 94% 30.04 in 10.0 mi NW 4.6 mph - N/A   Scattered Clouds
1:16 AM 55.4 °F 53.6 °F 94% 30.05 in 10.0 mi Calm Calm - N/A   Scattered Clouds
1:35 AM 55.4 °F 53.6 °F 94% 30.05 in 10.0 mi WNW 3.5 mph - N/A   Scattered Clouds
1:55 AM 55.4 °F 53.6 °F 94% 30.05 in 10.0 mi WNW 3.5 mph - N/A   Clear
2:16 AM 55.4 °F 53.6 °F 94% 30.05 in 10.0 mi Calm Calm - N/A   Scattered Clouds
2:35 AM 55.4 °F 53.6 °F 94% 30.04 in 10.0 mi NW 3.5 mph - N/A   Scattered Clouds
2:55 AM 55.4 °F 55.4 °F 100% 30.05 in 10.0 mi Calm Calm - N/A   Clear
3:16 AM 53.6 °F 51.8 °F 94% 30.05 in 10.0 mi Calm Calm - N/A   Clear
3:35 AM 53.6 °F 51.8 °F 94% 30.06 in 10.0 mi Calm Calm - N/A   Clear
3:55 AM 53.6 °F 51.8 °F 94% 30.06 in 10.0 mi NNW 3.5 mph - N/A   Scattered Clouds
4:16 AM 53.6 °F 51.8 °F 94% 30.06 in 10.0 mi Calm Calm - N/A   Scattered Clouds
4:35 AM 53.6 °F 51.8 °F 94% 30.07 in 10.0 mi NW 3.5 mph - N/A   Scattered Clouds
4:55 AM 53.6 °F 53.6 °F 100% 30.07 in 10.0 mi Calm Calm - N/A   Clear
5:16 AM 53.6 °F 53.6 °F 100% 30.07 in 10.0 mi WNW 3.5 mph - N/A   Scattered Clouds
5:35 AM 53.6 °F 53.6 °F 100% 30.07 in 10.0 mi Calm Calm - N/A   Scattered Clouds
5:55 AM 53.6 °F 53.6 °F 100% 30.08 in 10.0 mi WNW 3.5 mph - N/A   Scattered Clouds
6:16 AM 53.6 °F 51.8 °F 94% 30.08 in 10.0 mi Calm Calm - N/A   Clear
6:35 AM 53.6 °F 51.8 °F 94% 30.09 in 10.0 mi NW 4.6 mph - N/A   Scattered Clouds
6:56 AM 53.6 °F 51.8 °F 94% 30.11 in 10.0 mi NW 4.6 mph - N/A   Scattered Clouds
7:16 AM 55.4 °F 53.6 °F 94% 30.11 in 10.0 mi NW 3.5 mph - N/A   Scattered Clouds
7:35 AM 55.4 °F 53.6 °F 94% 30.11 in 10.0 mi WNW 3.5 mph - N/A   Scattered Clouds
7:56 AM 55.4 °F 53.6 °F 94% 30.11 in 10.0 mi Calm Calm - N/A   Clear
8:16 AM 59.0 °F 55.4 °F 88% 30.11 in 10.0 mi Calm Calm - N/A   Clear
8:35 AM 60.8 °F 53.6 °F 77% 30.11 in 10.0 mi Calm Calm - N/A   Clear
8:56 AM 62.6 °F 53.6 °F 72% 30.12 in 10.0 mi NW 4.6 mph - N/A   Clear
9:16 AM 64.4 °F 55.4 °F 73% 30.13 in 10.0 mi NW 3.5 mph - N/A   Clear
9:35 AM 68.0 °F 57.2 °F 68% 30.13 in 10.0 mi NW 4.6 mph - N/A   Clear
9:56 AM 69.8 °F 57.2 °F 64% 30.13 in 10.0 mi NNW 3.5 mph - N/A   Clear
10:16 AM 69.8 °F 55.4 °F 60% 30.13 in 10.0 mi North 3.5 mph - N/A   Clear
10:35 AM 69.8 °F 55.4 °F 60% 30.14 in 10.0 mi WNW 4.6 mph - N/A   Clear
10:56 AM 71.6 °F 55.4 °F 57% 30.14 in 10.0 mi Calm Calm - N/A   Clear
11:16 AM 73.4 °F 53.6 °F 50% 30.14 in 10.0 mi North 3.5 mph - N/A   Clear
11:35 AM 73.4 °F 53.6 °F 50% 30.14 in 10.0 mi NNW 5.8 mph - N/A   Clear
11:56 AM 73.4 °F 51.8 °F 47% 30.15 in 10.0 mi NW 5.8 mph - N/A   Clear
12:16 PM 73.4 °F 51.8 °F 47% 30.15 in 10.0 mi North 4.6 mph - N/A   Clear
12:35 PM 73.4 °F 51.8 °F 47% 30.16 in 10.0 mi NNW 5.8 mph - N/A   Clear
12:55 PM 75.2 °F 50.0 °F 41% 30.15 in 10.0 mi NNW 5.8 mph - N/A   Clear
1:16 PM 77.0 °F 50.0 °F 39% 30.15 in 10.0 mi NW 9.2 mph - N/A   Clear
1:35 PM 73.4 °F 50.0 °F 44% 30.15 in 10.0 mi NW 11.5 mph - N/A   Mostly Cloudy
1:55 PM 77.0 °F 51.8 °F 41% 30.15 in 10.0 mi NW 9.2 mph - N/A   Scattered Clouds
2:16 PM 73.4 °F 51.8 °F 47% 30.15 in 10.0 mi North 5.8 mph - N/A   Clear
2:35 PM 77.0 °F 48.2 °F 36% 30.14 in 10.0 mi NNW 9.2 mph - N/A   Clear
2:55 PM 77.0 °F 46.4 °F 34% 30.14 in 10.0 mi NNW 11.5 mph 18.4 mph N/A   Scattered Clouds
3:15 PM 77.0 °F 50.0 °F 39% 30.14 in 10.0 mi NW 9.2 mph 17.3 mph N/A   Scattered Clouds
3:35 PM 77.0 °F 50.0 °F 39% 30.14 in 10.0 mi NW 10.4 mph - N/A   Clear
3:56 PM 77.0 °F 48.2 °F 36% 30.14 in 10.0 mi NW 13.8 mph 18.4 mph N/A   Clear
4:15 PM 77.0 °F 46.4 °F 34% 30.14 in 10.0 mi NW 12.7 mph 16.1 mph N/A   Clear
4:35 PM 77.0 °F 50.0 °F 39% 30.13 in 10.0 mi NNW 10.4 mph 16.1 mph N/A   Clear
4:56 PM 77.0 °F 50.0 °F 39% 30.13 in 10.0 mi NNE 6.9 mph - N/A   Scattered Clouds
5:15 PM 77.0 °F 48.2 °F 36% 30.13 in 10.0 mi NNW 6.9 mph - N/A   Scattered Clouds
5:35 PM 77.0 °F 46.4 °F 34% 30.13 in 10.0 mi NNW 8.1 mph - N/A   Clear
5:56 PM 77.0 °F 48.2 °F 36% 30.13 in 10.0 mi NNW 8.1 mph - N/A   Clear
6:15 PM 77.0 °F 46.4 °F 34% 30.13 in 10.0 mi NW 6.9 mph - N/A   Clear
6:35 PM 77.0 °F 48.2 °F 36% 30.13 in 10.0 mi NNW 5.8 mph - N/A   Clear
6:56 PM 73.4 °F 46.4 °F 38% 30.13 in 10.0 mi NW 8.1 mph - N/A   Clear
7:15 PM 73.4 °F 48.2 °F 41% 30.13 in 10.0 mi NW 5.8 mph - N/A   Clear
7:35 PM 73.4 °F 50.0 °F 44% 30.13 in 10.0 mi NW 4.6 mph - N/A   Clear
7:56 PM 71.6 °F 50.0 °F 46% 30.13 in 10.0 mi WNW 4.6 mph - N/A   Clear
8:15 PM 69.8 °F 51.8 °F 53% 30.14 in 10.0 mi Calm Calm - N/A   Clear
8:35 PM 69.8 °F 51.8 °F 53% 30.14 in 10.0 mi Calm Calm - N/A   Clear
8:56 PM 64.4 °F 51.8 °F 64% 30.14 in 10.0 mi Calm Calm - N/A   Clear
9:15 PM 62.6 °F 51.8 °F 68% 30.15 in 10.0 mi Calm Calm - N/A   Clear
9:35 PM 60.8 °F 53.6 °F 77% 30.16 in 10.0 mi Calm Calm - N/A   Clear
9:56 PM 60.8 °F 53.6 °F 77% 30.16 in 10.0 mi Calm Calm - N/A   Clear
10:15 PM 60.8 °F 53.6 °F 77% 30.16 in 10.0 mi Calm Calm - N/A   Clear
10:35 PM 59.0 °F 53.6 °F 82% 30.17 in 10.0 mi Calm Calm - N/A   Clear
10:55 PM 59.0 °F 53.6 °F 82% 30.17 in 10.0 mi Calm Calm - N/A   Clear
11:15 PM 59.0 °F 53.6 °F 82% 30.18 in 10.0 mi Calm Calm - N/A   Clear
11:36 PM 55.4 °F 53.6 °F 94% 30.18 in 10.0 mi Calm Calm - N/A   Clear
11:55 PM 55.4 °F 53.6 °F 94% 30.19 in 10.0 mi Calm Calm - N/A   Clear